Total_Precipitation_Accumulation
0.00 0.00 0.00 0.00 0.00 0.00 0.00 0.00 0.00 0.00 0.00 0.00 0.00 0.00 0.00 0.00 0.00 0.00 0.00 0.00 0.00 0.01 0.05 0.06 0.04 0.03 0.03 0.04 0.02 0.01 0.01 0.01 0.01 0.02 0.03 0.03 0.04 0.02 0.01 0.01 0.02 0.04 0.08 0.15 0.20 0.20 0.18 0.12 0.07
0.00 0.00 0.00 0.00 0.00 0.00 0.00 0.00 0.00 0.00 0.00 0.00 0.00 0.00 0.00 0.00 0.00 0.00 0.00 0.00 0.00 0.02 0.05 0.05 0.06 0.04 0.04 0.04 0.03 0.01 0.01 0.01 0.03 0.02 0.04 0.05 0.04 0.01 0.01 0.02 0.03 0.09 0.15 0.23 0.21 0.16 0.09 0.07 0.09
0.00 0.00 0.00 0.00 0.00 0.00 0.00 0.00 0.00 0.00 0.00 0.00 0.00 0.00 0.00 0.00 0.00 0.00 0.00 0.00 0.01 0.06 0.08 0.05 0.07 0.06 0.05 0.04 0.02 0.01 0.01 0.02 0.03 0.04 0.05 0.06 0.02 0.00 0.01 0.03 0.06 0.16 0.22 0.22 0.20 0.08 0.06 0.10 0.12
0.00 0.00 0.00 0.00 0.00 0.00 0.00 0.00 0.00 0.00 0.00 0.00 0.00 0.00 0.00 0.00 0.00 0.00 0.00 0.00 0.02 0.07 0.12 0.13 0.11 0.11 0.08 0.03 0.02 0.01 0.01 0.02 0.02 0.04 0.06 0.03 0.01 0.02 0.04 0.02 0.09 0.18 0.19 0.19 0.12 0.06 0.04 0.06 0.06
0.00 0.00 0.00 0.00 0.00 0.00 0.00 0.00 0.00 0.00 0.00 0.00 0.00 0.00 0.00 0.00 0.00 0.00 0.00 0.01 0.04 0.08 0.12 0.15 0.18 0.17 0.13 0.04 0.02 0.02 0.01 0.02 0.02 0.05 0.07 0.03 0.02 0.04 0.01 0.04 0.13 0.16 0.15 0.14 0.10 0.05 0.02 0.04 0.02
0.01 0.00 0.00 0.00 0.00 0.00 0.00 0.00 0.00 0.00 0.00 0.00 0.00 0.00 0.00 0.00 0.01 0.02 0.01 0.01 0.06 0.08 0.15 0.27 0.37 0.28 0.21 0.10 0.04 0.03 0.01 0.01 0.02 0.04 0.06 0.04 0.03 0.02 0.01 0.07 0.16 0.18 0.14 0.13 0.08 0.06 0.02 0.02 0.00
0.01 0.00 0.00 0.00 0.00 0.00 0.00 0.00 0.00 0.00 0.00 0.00 0.00 0.00 0.00 0.00 0.02 0.07 0.07 0.08 0.11 0.15 0.27 0.45 0.52 0.54 0.50 0.28 0.08 0.04 0.03 0.02 0.01 0.02 0.05 0.05 0.03 0.01 0.03 0.14 0.21 0.20 0.14 0.10 0.08 0.07 0.02 0.01 0.00
0.00 0.00 0.00 0.00 0.00 0.00 0.00 0.00 0.00 0.00 0.00 0.00 0.00 0.00 0.00 0.00 0.01 0.06 0.15 0.28 0.37 0.35 0.31 0.46 0.60 0.63 0.65 0.48 0.19 0.06 0.06 0.03 0.01 0.03 0.06 0.05 0.05 0.02 0.07 0.20 0.22 0.16 0.08 0.06 0.04 0.04 0.02 0.00 0.00
0.01 0.01 0.00 0.00 0.00 0.00 0.00 0.00 0.00 0.00 0.00 0.00 0.00 0.00 0.00 0.00 0.00 0.06 0.19 0.40 0.62 0.69 0.52 0.54 0.62 0.71 0.76 0.56 0.40 0.18 0.09 0.06 0.05 0.06 0.10 0.06 0.03 0.03 0.09 0.16 0.09 0.03 0.02 0.02 0.01 0.01 0.00 0.00 0.00
0.02 0.01 0.00 0.00 0.00 0.00 0.00 0.00 0.00 0.00 0.00 0.00 0.00 0.00 0.00 0.00 0.00 0.03 0.10 0.25 0.39 0.51 0.65 0.62 0.72 0.64 0.65 0.62 0.60 0.51 0.20 0.10 0.04 0.02 0.08 0.02 0.02 0.04 0.11 0.09 0.02 0.01 0.01 0.01 0.01 0.00 0.00 0.00 0.00
0.01 0.01 0.00 0.00 0.00 0.00 0.00 0.00 0.00 0.00 0.00 0.00 0.00 0.00 0.00 0.00 0.00 0.01 0.04 0.14 0.22 0.29 0.62 0.63 0.64 0.71 0.69 0.74 0.74 0.51 0.25 0.11 0.04 0.01 0.02 0.02 0.04 0.10 0.13 0.08 0.03 0.00 0.00 0.00 0.00 0.00 0.00 0.00 0.00
0.01 0.00 0.00 0.00 0.00 0.00 0.00 0.00 0.00 0.00 0.00 0.00 0.00 0.00 0.00 0.00 0.00 0.01 0.02 0.08 0.20 0.21 0.55 0.91 0.95 0.85 1.08 0.93 0.84 0.52 0.21 0.10 0.05 0.02 0.02 0.02 0.05 0.10 0.12 0.04 0.01 0.00 0.00 0.00 0.00 0.00 0.00 0.00 0.00
0.01 0.00 0.00 0.00 0.00 0.01 0.02 0.01 0.00 0.00 0.00 0.00 0.00 0.00 0.00 0.00 0.01 0.01 0.03 0.07 0.16 0.21 0.39 0.84 1.15 1.21 1.18 1.24 0.97 0.65 0.28 0.08 0.04 0.03 0.01 0.02 0.05 0.07 0.06 0.02 0.00 0.00 0.00 0.00 0.00 0.00 0.00 0.00 0.00
0.00 0.00 0.01 0.02 0.01 0.03 0.06 0.04 0.02 0.01 0.00 0.00 0.00 0.00 0.00 0.00 0.01 0.03 0.07 0.09 0.21 0.23 0.33 0.53 1.07 1.32 1.23 1.47 1.15 0.73 0.45 0.08 0.04 0.02 0.01 0.03 0.04 0.05 0.03 0.01 0.00 0.00 0.00 0.00 0.00 0.00 0.00 0.00 0.00
0.00 0.00 0.00 0.00 0.01 0.03 0.05 0.09 0.01 0.00 0.00 0.00 0.00 0.00 0.00 0.00 0.00 0.02 0.08 0.11 0.15 0.28 0.42 0.50 0.93 1.29 1.28 1.26 1.53 1.13 0.75 0.36 0.05 0.01 0.01 0.03 0.05 0.03 0.02 0.00 0.00 0.00 0.00 0.00 0.00 0.00 0.00 0.00 0.00
0.00 0.00 0.00 0.00 0.00 0.00 0.07 0.14 0.00 0.00 0.01 0.04 0.01 0.00 0.00 0.00 0.00 0.00 0.06 0.16 0.22 0.35 0.44 0.51 0.74 1.01 1.22 1.34 1.31 1.37 0.87 0.55 0.16 0.02 0.01 0.03 0.04 0.02 0.01 0.00 0.00 0.00 0.00 0.00 0.00 0.00 0.00 0.00 0.00
0.00 0.00 0.00 0.00 0.00 0.00 0.02 0.06 0.00 0.00 0.01 0.02 0.00 0.00 0.00 0.00 0.00 0.00 0.03 0.13 0.30 0.43 0.57 0.60 0.64 0.74 1.14 1.45 1.51 1.40 1.41 0.83 0.51 0.08 0.02 0.03 0.03 0.02 0.00 0.00 0.00 0.00 0.00 0.00 0.00 0.00 0.00 0.00 0.00
0.00 0.00 0.00 0.00 0.00 0.00 0.00 0.00 0.00 0.00 0.01 0.00 0.00 0.00 0.00 0.00 0.00 0.00 0.01 0.09 0.29 0.51 0.62 0.72 0.58 0.70 0.91 2.02 1.48 1.46 1.35 1.13 0.61 0.32 0.04 0.03 0.03 0.02 0.01 0.00 0.00 0.00 0.00 0.00 0.00 0.00 0.00 0.00 0.00
0.00 0.00 0.00 0.00 0.00 0.00 0.00 0.00 0.00 0.00 0.00 0.00 0.00 0.00 0.00 0.00 0.00 0.00 0.01 0.05 0.21 0.47 0.65 0.70 0.60 0.62 0.90 1.67 2.30 1.65 1.31 1.63 0.84 0.38 0.05 0.03 0.02 0.02 0.00 0.00 0.00 0.00 0.00 0.00 0.00 0.00 0.00 0.00 0.00
0.00 0.00 0.01 0.00 0.00 0.01 0.00 0.00 0.00 0.00 0.00 0.00 0.00 0.00 0.00 0.00 0.00 0.00 0.02 0.03 0.11 0.28 0.62 0.89 0.77 0.56 0.82 1.07 2.15 1.73 1.45 1.52 1.47 0.84 0.19 0.01 0.01 0.01 0.00 0.00 0.00 0.00 0.00 0.00 0.00 0.00 0.00 0.00 0.00
0.00 0.01 0.01 0.01 0.01 0.02 0.02 0.03 0.00 0.00 0.00 0.00 0.00 0.00 0.00 0.00 0.00 0.00 0.03 0.04 0.09 0.20 0.51 0.94 1.08 0.87 1.15 1.13 1.60 2.17 1.75 1.72 1.45 0.83 0.34 0.03 0.02 0.00 0.00 0.00 0.00 0.00 0.00 0.00 0.00 0.00 0.00 0.00 0.00
0.00 0.00 0.01 0.02 0.05 0.06 0.03 0.15 0.00 0.00 0.00 0.00 0.00 0.00 0.00 0.00 0.00 0.00 0.01 0.08 0.09 0.12 0.29 1.01 1.48 1.71 1.62 1.90 1.58 1.72 2.19 1.89 1.67 1.06 0.47 0.03 0.02 0.00 0.00 0.00 0.00 0.00 0.00 0.00 0.00 0.00 0.00 0.00 0.00
0.00 0.00 0.00 0.01 0.02 0.07 0.02 0.17 0.04 0.01 0.01 0.00 0.00 0.00 0.00 0.00 0.00 0.00 0.00 0.03 0.10 0.14 0.24 0.88 1.55 1.99 2.81 2.84 2.43 1.65 1.65 1.80 2.06 1.40 0.69 0.05 0.02 0.00 0.00 0.00 0.00 0.00 0.00 0.00 0.00 0.00 0.00 0.00 0.00
0.00 0.01 0.00 0.00 0.03 0.08 0.03 0.11 0.10 0.03 0.04 0.00 0.00 0.00 0.00 0.00 0.00 0.00 0.00 0.01 0.08 0.21 0.18 0.67 1.71 1.71 2.54 3.22 3.58 2.04 1.66 1.67 2.17 2.08 1.02 0.13 0.03 0.02 0.00 0.00 0.00 0.00 0.00 0.00 0.00 0.00 0.00 0.00 0.00
0.01 0.04 0.03 0.01 0.04 0.06 0.03 0.07 0.16 0.07 0.01 0.00 0.00 0.00 0.00 0.00 0.00 0.00 0.00 0.01 0.03 0.20 0.29 0.40 1.07 1.60 1.40 2.73 3.06 2.77 1.50 1.50 1.71 2.26 1.16 0.25 0.05 0.03 0.01 0.00 0.00 0.00 0.00 0.00 0.00 0.00 0.00 0.00 0.00
0.01 0.11 0.21 0.14 0.01 0.00 0.02 0.18 0.25 0.03 0.01 0.00 0.00 0.00 0.00 0.00 0.00 0.00 0.00 0.00 0.01 0.07 0.55 0.28 0.75 1.17 1.42 1.50 2.74 2.77 2.18 1.28 1.68 1.91 1.36 0.44 0.06 0.04 0.03 0.00 0.00 0.00 0.00 0.00 0.00 0.00 0.00 0.00 0.00
0.05 0.06 0.03 0.20 0.02 0.07 0.08 0.14 0.10 0.01 0.00 0.00 0.00 0.00 0.00 0.00 0.00 0.00 0.00 0.00 0.00 0.03 0.53 0.68 0.52 0.78 1.30 1.33 1.99 2.83 2.71 1.81 1.68 1.79 1.75 0.64 0.12 0.02 0.02 0.00 0.00 0.00 0.00 0.00 0.00 0.00 0.00 0.00 0.00
0.03 0.03 0.06 0.08 0.14 0.07 0.02 0.17 0.23 0.12 0.07 0.03 0.02 0.04 0.03 0.02 0.02 0.01 0.00 0.00 0.00 0.01 0.18 1.01 0.47 0.59 0.85 1.20 1.46 2.14 2.48 2.46 2.04 1.81 1.65 1.22 0.34 0.04 0.01 0.00 0.00 0.00 0.00 0.00 0.00 0.00 0.00 0.00 0.00
0.08 0.09 0.09 0.08 0.16 0.29 0.14 0.19 0.43 0.30 0.32 0.35 0.19 0.16 0.16 0.14 0.07 0.04 0.02 0.01 0.00 0.02 0.16 0.68 0.71 0.57 0.70 0.89 1.32 1.56 2.17 2.06 2.97 2.52 1.72 1.30 0.71 0.15 0.02 0.02 0.00 0.00 0.00 0.00 0.00 0.00 0.00 0.00 0.00
0.08 0.14 0.20 0.25 0.21 0.26 0.26 0.18 0.23 0.38 0.52 0.74 0.66 0.45 0.29 0.26 0.12 0.08 0.03 0.01 0.01 0.03 0.12 0.37 0.99 0.34 0.52 0.75 1.19 1.24 1.82 1.99 2.50 3.24 2.42 1.64 1.27 0.47 0.22 0.04 0.02 0.00 0.00 0.00 0.00 0.00 0.00 0.00 0.00